Lexington Weather

Lexington, Massachusetts, USA

70°F
8/17/2022 6:28pm 
  • Lexington Conditions: Overcast
  • Temperature: 70.0°F / 21.1°C 
  • Dew Point: 59.4°FIncreased 1.3°Fsince last hour.
  • Relative Humidity: 69%Increased 3.0% since last hour.
  • Wind: Calm, 10-min avg: Calm, gust: None
  • Barometer: 29.85 inFalling 0.02  inHg/hr Falling Slowly
  • Visibility: 10 miles
  • Rain Today: 0.00 in
  •   

Regional Weather Roundup
for Boston, MA

        
000
ASUS41 KBOX 141310
RWRBOX

REGIONAL WEATHER ROUNDUP
NATIONAL WEATHER SERVICE BOSTON/NORTON MA
900 AM EDT SUN AUG 14 2022

NOTE:  "FAIR" INDICATES FEW OR NO CLOUDS BELOW 12,000 FEET WITH NO 
SIGNIFICANT WEATHER AND/OR OBSTRUCTIONS TO VISIBILITY.

MAZALL-141400-
EASTERN MASSACHUSETTS
  
CITY           SKY/WX    TMP DP  RH WIND       PRES   REMARKS
BOSTON         MOSUNNY   72  54  53 NW7       30.06S                  
BEVERLY        SUNNY     70  56  61 N5        30.05S                  
LAWRENCE       SUNNY     71  55  56 NW6       30.07F                  
BEDFORD        SUNNY     70  56  61 VRB3      30.06R                  
BLUE HILL      NOT AVBL                                               
NORWOOD        SUNNY     73  55  53 NW6       30.06S                  
MARSHFIELD     SUNNY     70  57  64 CALM      30.06S                  
PLYMOUTH       SUNNY     70  57  63 NW5       30.06S                  
TAUNTON          N/A    N/A N/A N/A MISG      30.06F                  
NEW BEDFORD    SUNNY     71  59  65 VRB3      30.06S                  
$$

MAZALL-141400-
CAPE COD AND THE ISLANDS
  
CITY           SKY/WX    TMP DP  RH WIND       PRES   REMARKS
FALMOUTH       SUNNY     70  59  68 N5        30.07R                  
HYANNIS        SUNNY     73  58  59 W6        30.05S                  
CHATHAM        SUNNY     73  58  59 W5        30.07R                  
NANTUCKET      MOSUNNY   76  62  62 N6        30.06S                  
MARTHAS VNYRD  SUNNY     72  63  73 VRB5      30.06S                  
$$
 
MAZALL-141400-
CENTRAL AND WESTERN MASSACHUSETTS
  
CITY           SKY/WX    TMP DP  RH WIND       PRES   REMARKS
WORCESTER      SUNNY     67  52  58 NW9       30.10R                  
FITCHBURG      SUNNY     71  51  49 VRB3      30.08S                  
ORANGE         SUNNY     65  53  65 CALM      30.10F                  
SPRINGFIELD    MOSUNNY   64  54  70 CALM      30.07F                  
WESTFIELD      SUNNY     66  54  65 CALM      30.09                   
NORTH ADAMS    NOT AVBL                                               
PITTSFIELD     SUNNY     64  53  67 CALM      30.10S                  
$$
 
RIZALL-141400-
RHODE ISLAND
  
CITY           SKY/WX    TMP DP  RH WIND       PRES   REMARKS
PROVIDENCE     MOSUNNY   73  54  51 VRB5      30.08S                  
NEWPORT        SUNNY     70  58  65 N5        30.07S                  
BLOCK ISLAND   SUNNY     69  57  65 NW6       30.09S                  
SMITHFIELD     SUNNY     70  55  59 NW7       30.09S                  
WESTERLY       SUNNY     71  56  58 VRB3      30.08S                  
$$
 
CTZALL-141400-
CONNECTICUT
  
CITY           SKY/WX    TMP DP  RH WIND       PRES   REMARKS
BRADLEY INTL   MOSUNNY   66  55  67 CALM      30.09F                  
HARTFORD       MOSUNNY   67  56  67 CALM      30.09F                  
BRIDGEPORT     SUNNY     72  58  61 NE3       30.08F                  
DANBURY        SUNNY     69  56  62 CALM      30.11S                  
GROTON         SUNNY     72  56  57 CALM      30.08S                  
NEW HAVEN      SUNNY     73  56  54 N5        30.09F                  
CHESTER        FAIR      73  54  49 VRB5      30.09F                  
MERIDEN        SUNNY     68  54  60 CALM      30.09F                  
WILLIMANTIC    SUNNY     65  55  70 CALM      30.09F                  
OXFORD         SUNNY     69  54  58 CALM      30.11S                  
$$

MEZ002-015-021-024-NHZ003-005-008-011-012-014-VTZ005-008-141400-
NORTHERN NEW ENGLAND
  
CITY           SKY/WX    TMP DP  RH WIND       PRES   REMARKS
PORTLAND ME    SUNNY     72  56  57 N9        30.03F                  
BANGOR ME      PTSUNNY   69  61  75 N5        30.01S                  
CONCORD NH     SUNNY     67  55  65 NW5       30.07F                  
MANCHESTER NH  SUNNY     71  54  54 NW7       30.05F                  
NASHUA NH      SUNNY     69  58  67 NW6       30.07F                  
PORTSMOUTH NH  SUNNY     69  54  57 W3        30.05R                  
JAFFREY NH     SUNNY     68  54  60 CALM      30.09F                  
KEENE NH       SUNNY     58  54  86 CALM        N/A                   
BURLINGTON VT  MOSUNNY   65  54  67 CALM      30.09S                  
MT. WASHINGTON MOSUNNY   45  43  93 N13         N/A                   
$$

NYZ052-076-141400-
EASTERN NEW YORK
  
CITY           SKY/WX    TMP DP  RH WIND       PRES   REMARKS
ALBANY         MOSUNNY   64  54  69 VRB3      30.10S                  
NEW YORK CITY  MOSUNNY   74  53  48 NE5       30.07F                  
$$
 
ANZALL-141400-
MARINE OBSERVATIONS
  
STATION/POSITION TIME  TEMP    WIND        PRES    VSBY  WAVE
                       AIR SEA DIR/SP/G                  HT/PER
                 (UTC) (F)     (DEG/KT/KT) (MB)    (MI)  (FT/S)
BOSTON BUOY      NOT AVBL
BUZZARDS BAY     NOT AVBL
NANTUCKET SOUND  NOT AVBL
MASS BAY-STELLWA NOT AVBL
ISLE OF SHOALS   NOT AVBL
S OF BLOCK IS    NOT AVBL
$$

......................KEY.........................
  SKY/WX - SKY CONDITION/PRESENT WEATHER
  TMP    - TEMPERATURE IN FAHRENHEIT
  DWPT   - DEWPOINT IN FAHRENHEIT
  RH     - RELATIVE HUMIDITY IN PERCENT
  WIND   - DIRECTION AND SPEED IN MPH
  PRES   - MEAN SEA LEVEL PRESSURE IN INCHES OF HG
  WCI    - WIND CHILL INDEX
  VSB    - VISIBILITY IN MILES
  HX     - HEAT INDEX
  TC     - TEMPERATURE IN CELSIUS
  VRB    - VARIABLE WIND DIRECTION
  N/A    - NOT AVAILABLE
  
      

Other recent Regional Weather Roundups

Wed Aug 17, 6:10pm

Wed Aug 17, 5:10pm

Wed Aug 17, 4:10pm

Wed Aug 17, 3:10pm

Wed Aug 17, 2:10pm

Wed Aug 17, 1:10pm

Wed Aug 17, 12:10pm

Wed Aug 17, 11:10am

Wed Aug 17, 10:10am

Wed Aug 17, 9:10am

Wed Aug 17, 8:10am

Wed Aug 17, 7:10am

Wed Aug 17, 6:10am

Wed Aug 17, 5:10am

Wed Aug 17, 4:10am

Wed Aug 17, 3:10am

Wed Aug 17, 2:10am

Wed Aug 17, 1:10am

Wed Aug 17, 12:10am

Tue Aug 16, 11:10pm

Tue Aug 16, 10:10pm

Tue Aug 16, 9:10pm

Tue Aug 16, 8:10pm

Tue Aug 16, 7:10pm

Tue Aug 16, 6:10pm

Tue Aug 16, 5:10pm

Tue Aug 16, 4:10pm

Tue Aug 16, 3:10pm

Tue Aug 16, 2:10pm

Tue Aug 16, 1:10pm

Tue Aug 16, 12:10pm

Tue Aug 16, 11:10am

Tue Aug 16, 10:10am

Tue Aug 16, 9:10am

Tue Aug 16, 8:10am

Tue Aug 16, 7:10am

Tue Aug 16, 6:10am

Tue Aug 16, 5:10am

Tue Aug 16, 4:10am

Tue Aug 16, 3:10am

Tue Aug 16, 2:10am

Tue Aug 16, 1:10am

Tue Aug 16, 12:10am

Mon Aug 15, 11:10pm

Mon Aug 15, 10:10pm

Mon Aug 15, 9:10pm

Mon Aug 15, 8:10pm

Mon Aug 15, 7:10pm

Mon Aug 15, 6:10pm

Mon Aug 15, 5:10pm

Mon Aug 15, 4:10pm

Mon Aug 15, 3:10pm

Mon Aug 15, 2:10pm

Mon Aug 15, 1:10pm

Mon Aug 15, 12:10pm

Mon Aug 15, 11:10am

Mon Aug 15, 10:10am

Mon Aug 15, 9:10am

Mon Aug 15, 8:10am

Mon Aug 15, 7:10am

Mon Aug 15, 6:10am

Mon Aug 15, 5:10am

Mon Aug 15, 4:10am

Mon Aug 15, 3:10am

Mon Aug 15, 2:10am

Mon Aug 15, 1:10am

Mon Aug 15, 12:10am

Sun Aug 14, 11:10pm

Sun Aug 14, 10:10pm

Sun Aug 14, 9:10pm

Sun Aug 14, 8:10pm

Sun Aug 14, 7:10pm

Sun Aug 14, 6:10pm

Sun Aug 14, 5:10pm

Sun Aug 14, 4:10pm

Sun Aug 14, 3:10pm

Sun Aug 14, 2:10pm

Sun Aug 14, 1:10pm

Sun Aug 14, 12:10pm

Sun Aug 14, 11:10am

Sun Aug 14, 10:10am

Sun Aug 14, 8:10am

Sun Aug 14, 7:10am

Sun Aug 14, 6:10am

Sun Aug 14, 5:10am

Sun Aug 14, 4:10am

Sun Aug 14, 3:10am

Sun Aug 14, 2:10am

Sun Aug 14, 1:10am

Sun Aug 14, 12:10am

Sat Aug 13, 11:10pm

Sat Aug 13, 10:10pm

Sat Aug 13, 9:10pm

Sat Aug 13, 8:10pm

Sat Aug 13, 7:10pm

Sat Aug 13, 6:10pm

Sat Aug 13, 5:10pm

Sat Aug 13, 4:10pm

Sat Aug 13, 3:10pm

Sat Aug 13, 2:10pm

Sat Aug 13, 1:10pm

Sat Aug 13, 12:10pm

Sat Aug 13, 11:10am

Sat Aug 13, 10:10am

Sat Aug 13, 9:10am

Sat Aug 13, 8:10am

Sat Aug 13, 7:10am

Sat Aug 13, 6:10am

Sat Aug 13, 5:10am

Sat Aug 13, 4:10am

Sat Aug 13, 3:10am

Sat Aug 13, 2:10am

Sat Aug 13, 1:10am

Sat Aug 13, 12:10am

Fri Aug 12, 11:10pm

Fri Aug 12, 10:10pm

Fri Aug 12, 9:10pm

Fri Aug 12, 8:10pm

Fri Aug 12, 7:10pm

Fri Aug 12, 6:10pm

Fri Aug 12, 5:10pm

Fri Aug 12, 4:10pm

Fri Aug 12, 3:10pm

Fri Aug 12, 2:10pm

Fri Aug 12, 1:10pm

Fri Aug 12, 12:10pm

Fri Aug 12, 11:10am

Fri Aug 12, 10:10am

Fri Aug 12, 9:10am

Fri Aug 12, 8:10am

Fri Aug 12, 7:10am

Fri Aug 12, 6:10am

Fri Aug 12, 5:10am

Fri Aug 12, 4:10am

Fri Aug 12, 3:10am

Fri Aug 12, 2:10am

Fri Aug 12, 1:10am

Fri Aug 12, 12:10am

Thu Aug 11, 11:10pm

Thu Aug 11, 10:10pm

Thu Aug 11, 9:10pm

Thu Aug 11, 8:10pm

Thu Aug 11, 7:10pm

Thu Aug 11, 6:10pm

Thu Aug 11, 5:10pm

Thu Aug 11, 4:10pm

Thu Aug 11, 3:10pm

Thu Aug 11, 2:10pm

Thu Aug 11, 1:10pm

Thu Aug 11, 12:10pm

Thu Aug 11, 11:10am

Thu Aug 11, 10:10am

Thu Aug 11, 9:10am

Thu Aug 11, 8:10am

Thu Aug 11, 7:10am

Thu Aug 11, 6:10am

Thu Aug 11, 5:10am

Thu Aug 11, 4:10am

Thu Aug 11, 3:10am

Thu Aug 11, 2:10am

Thu Aug 11, 1:10am

Thu Aug 11, 12:10am

Wed Aug 10, 11:10pm

Wed Aug 10, 10:10pm

Wed Aug 10, 9:10pm

Wed Aug 10, 8:10pm

Wed Aug 10, 7:10pm

Meta data:

ID: b166c994-02cc-44f7-9ba3-86f980a22651
Link: https://api.weather.gov/products/b166c994-02cc-44f7-9ba3-86f980a22651